Location: Central Falls
(41.8900°N, 71.3929°W)
Time: 21:54:16
(UTC+00:00)

Explorer 11/Cluster Stage 4 - All Passes

Search period start: 06 December 2023 00:00
Search period end: 16 December 2023 00:00
Orbit: 465 x 1227 km, 28.8° (Epoch: 05 December)

Date Brightness Start Highest point End Pass type
(mag) Time Alt. Az. Time Alt. Az. Time Alt. Az.
06 Dec - 17:00:13 10° SSW 17:05:04 18° SSE 17:09:33 10° ESE daylight
06 Dec - 18:47:13 10° SW 18:52:52 25° S 18:57:48 10° SE daylight
06 Dec - 20:35:48 10° WSW 20:40:28 21° SSW 20:44:31 10° SE daylight
07 Dec - 16:43:35 10° SSW 16:48:53 20° SSE 16:53:49 10° ESE daylight
07 Dec - 18:30:47 10° SW 18:36:45 26° S 18:41:59 10° SE daylight
07 Dec - 20:19:28 10° WSW 20:24:24 21° SSW 20:28:41 10° SE daylight
08 Dec - 16:27:01 10° SSW 16:32:41 21° SSE 16:38:00 10° ESE daylight
08 Dec - 18:14:22 10° SW 18:20:36 28° S 18:26:07 10° SE daylight
08 Dec - 20:03:09 10° WSW 20:08:17 22° SSW 20:12:48 10° SSE daylight
09 Dec - 14:26:46 10° SSE 14:28:44 11° SSE 14:30:43 10° SE daylight
09 Dec - 16:10:31 10° SSW 16:16:28 23° SSE 16:22:06 10° ESE daylight
09 Dec - 17:57:58 10° SW 18:04:25 29° S 18:10:11 10° SE daylight
09 Dec - 19:46:49 10° WSW 19:52:09 22° SSW 19:56:52 10° SSE daylight
10 Dec - 14:09:37 10° S 14:12:29 12° SSE 14:15:22 10° SE daylight
10 Dec - 15:54:03 10° SW 16:00:13 24° SSE 16:06:08 10° ESE daylight
10 Dec - 17:41:35 10° WSW 17:48:12 29° S 17:54:13 10° SE daylight
10 Dec - 19:30:30 10° WSW 19:35:59 22° SSW 19:40:52 10° SSE daylight
11 Dec - 13:52:47 10° S 13:56:13 13° SSE 13:59:41 10° SE daylight
11 Dec - 15:37:39 10° SW 15:43:57 26° SSE 15:50:07 10° ESE daylight
11 Dec - 17:25:14 10° WSW 17:31:59 30° S 17:38:12 10° SE daylight
11 Dec - 19:14:12 10° WSW 19:19:47 22° SSW 19:24:50 10° SSE daylight
12 Dec - 13:36:09 10° S 13:39:57 14° SSE 13:43:50 10° SE daylight
12 Dec - 15:21:18 10° SW 15:27:41 27° SSE 15:34:01 10° ESE daylight
12 Dec - 17:08:55 10° WSW 17:15:43 30° S 17:22:07 10° SE daylight
12 Dec - 18:57:55 10° WSW 19:03:34 22° SSW 19:08:45 10° SSE daylight
13 Dec - 13:19:38 10° S 13:23:40 15° SSE 13:27:51 10° ESE daylight
13 Dec - 15:05:00 10° SW 15:11:24 27° SSE 15:17:53 10° ESE daylight
13 Dec - 16:52:39 10° WSW 16:59:27 31° S 17:05:59 10° SE daylight
13 Dec - 18:41:40 10° WSW 18:47:19 22° SSW 18:52:35 10° SSE daylight
14 Dec - 13:03:13 10° S 13:07:24 16° SSE 13:11:47 10° ESE daylight
14 Dec - 14:48:45 10° SW 14:55:07 28° S 15:01:41 10° ESE daylight
14 Dec - 16:36:24 10° WSW 16:43:10 31° S 16:49:48 10° SE daylight
14 Dec - 18:25:27 10° WSW 18:31:04 21° SSW 18:36:21 10° SSE daylight
15 Dec - 12:46:53 10° S 12:51:08 17° SSE 12:55:39 10° ESE daylight
15 Dec - 14:32:32 10° SW 14:38:49 28° S 14:45:26 10° ESE daylight
15 Dec - 16:20:10 10° WSW 16:26:53 30° S 16:33:34 10° SE daylight
15 Dec - 18:09:16 10° WSW 18:14:46 20° SSW 18:20:03 10° SSE daylight
